Вернуться в каталог

COSMOS 2426

GLONASS

АктивенНавигацияMEO
NORAD 29671·PAYLOAD·🇷🇺 Russia

Запущен Dec 25, 2006 с Baikonur Cosmodrome

Loading…

Ближайшие Пролёты (ближайшие 24 часа)

TLE

СвежийSource: Space-Track

Эпоха: Sep 14, 2026, 13:44 UTC

1 29671U 06062B   26257.57258448  .00000021  00000-0  00000+0 0  9996
2 29671  64.7014 191.5754 0021646 183.6948 356.0180  2.12963853153459

Отслеживайте COSMOS 2426 в реальном времени с AllMySat

Download on the App Store